Wind_Speed
34 35 36 36 37 38 39 40 41 42 42 43 43 44 45 46 47 47 48 48 49 50 50 49 49 49 50 50 51 52 52 52 53 53 53 53 54 54 54 53 53 53 52
35 36 36 37 38 38 39 40 41 41 42 43 44 44 46 47 47 48 49 50 50 51 51 51 51 50 50 51 51 51 51 52 52 53 53 54 55 54 54 53 52 52 51
35 36 36 37 37 38 38 40 41 41 42 43 44 45 45 46 47 48 49 50 50 51 51 52 51 51 51 51 51 52 52 53 53 53 54 54 55 54 53 52 52 51 51
35 35 36 37 37 38 39 40 41 42 43 44 44 44 44 45 46 46 47 48 49 50 51 51 52 52 51 52 52 53 53 53 54 53 54 53 53 52 52 51 51 51 51
35 35 36 37 38 39 39 40 41 42 42 43 43 44 45 45 46 46 47 47 48 49 50 50 51 51 52 52 52 52 53 53 53 53 53 52 52 51 51 50 50 50 51
36 37 37 38 39 40 40 41 41 42 43 44 44 44 45 46 46 47 46 46 47 48 48 49 49 50 51 51 51 52 52 52 52 52 52 52 51 51 50 50 50 49 49
38 39 39 40 41 41 42 42 43 43 44 45 45 45 45 45 46 46 46 46 46 47 47 48 48 49 49 50 50 50 50 51 51 51 51 51 51 50 50 49 49 49 49
39 40 40 41 42 43 44 44 44 44 44 44 44 45 45 46 46 47 47 47 47 47 48 48 48 48 49 49 49 49 50 50 50 50 50 50 50 49 49 48 48 48 48
41 41 42 42 43 44 44 44 44 44 44 44 44 44 45 45 46 47 47 47 47 48 47 48 48 49 49 49 48 49 49 49 49 49 49 48 48 48 48 48 47 47 47
41 42 42 43 43 44 44 44 44 44 44 45 44 44 45 46 46 47 47 47 48 48 48 49 49 50 49 49 48 48 48 48 48 47 47 47 47 46 46 46 46 46 46
42 43 43 44 44 44 44 44 44 45 45 45 45 46 46 46 47 47 48 49 49 49 49 49 49 49 49 48 48 47 47 47 46 46 46 46 46 45 45 45 45 45 45
42 43 44 44 45 45 45 45 45 46 46 46 46 46 47 47 48 48 49 49 50 49 49 49 49 49 48 48 47 46 46 46 46 46 45 45 45 44 44 44 44 45 45
43 43 44 45 45 46 46 46 46 46 47 47 47 47 47 48 49 49 49 49 50 49 49 48 48 48 47 47 46 46 46 46 45 45 44 44 44 43 43 43 43 43 44
43 44 44 45 45 46 46 46 47 47 47 47 47 48 48 48 49 49 49 49 49 48 47 46 46 46 46 45 45 45 45 44 44 43 43 42 42 42 42 42 42 42 42
44 45 45 45 46 46 46 47 47 47 48 48 48 48 49 49 49 49 49 49 48 47 46 45 45 45 44 44 44 44 43 42 42 41 41 40 40 40 40 40 40 40 39
45 45 46 46 46 47 47 47 47 47 48 48 49 49 49 49 49 49 48 48 47 46 45 44 43 43 43 42 42 41 41 40 40 40 39 39 39 39 39 38 38 38 38
46 46 46 46 47 47 47 48 47 48 48 49 49 49 49 49 48 48 47 46 45 44 43 42 42 41 41 40 40 39 38 38 38 38 38 37 37 37 37 37 37 37 37
46 47 47 47 47 48 48 49 49 49 48 48 48 48 48 48 47 46 45 44 43 43 42 41 41 40 39 39 38 37 36 36 36 36 35 36 36 36 36 36 36 37 36
47 48 48 48 49 49 49 50 50 49 48 48 47 47 47 46 45 44 43 42 42 41 41 40 39 38 37 37 36 36 35 34 34 34 34 34 34 35 35 35 35 35 34
48 48 49 49 49 50 50 50 49 49 48 47 46 46 45 44 43 41 41 40 40 39 39 38 38 36 36 35 35 35 34 34 34 34 33 33 33 33 33 32 32 32 31
49 49 49 50 50 49 49 49 48 47 46 46 45 44 44 42 41 40 39 39 39 38 37 36 35 35 34 34 34 34 34 33 33 32 32 32 31 31 31 30 30 30 30
49 49 49 49 49 48 48 47 46 45 44 44 43 42 41 40 39 39 38 37 37 36 35 34 34 33 33 33 32 32 31 31 31 31 31 30 30 29 29 28 28 28 28
48 48 48 47 47 46 46 45 44 43 43 42 41 40 39 38 37 37 36 35 34 33 33 33 32 32 31 31 30 30 29 29 29 30 29 29 28 28 27 27 27 27 26
46 46 45 44 44 44 43 42 42 41 40 39 38 37 36 35 35 34 34 33 32 32 31 31 30 30 29 29 28 28 28 28 28 28 28 27 27 27 26 26 25 25 25
43 43 42 41 40 40 39 39 38 38 37 37 36 34 33 32 32 32 31 31 30 29 28 28 28 28 27 27 26 26 26 25 25 25 25 25 25 25 25 24 24 23 23
40 39 39 39 38 37 37 36 36 35 35 34 33 32 32 31 30 29 29 29 28 27 26 26 26 26 25 24 24 24 24 23 23 23 23 23 23 23 23 22 22 22 22
Wind_Direction
266 267 269 271 272 273 274 275 275 276 276 277 278 278 277 277 277 277 277 278 280 281 281 281 282 281 281 282 282 283 283 283 282 283 283 282 282 283 283 284 283 282 281
269 270 271 272 274 275 275 277 277 278 278 278 278 279 279 279 279 279 279 279 280 281 282 282 283 283 283 283 283 283 283 284 284 284 284 284 284 284 283 283 282 281 280
271 272 272 274 275 276 277 277 278 279 279 279 279 280 281 281 281 281 282 282 282 283 283 284 284 284 283 284 283 283 284 284 284 284 285 285 284 283 283 282 282 281 281
272 273 274 275 276 277 278 278 279 279 280 280 280 281 282 282 283 283 283 284 284 284 284 285 285 284 284 284 284 284 284 284 284 285 285 285 284 284 283 283 282 282 282
273 274 275 276 277 278 279 279 279 280 281 281 282 282 282 283 283 284 284 285 285 285 285 285 285 285 285 285 285 285 285 285 285 285 285 284 284 284 283 283 282 282 283
274 275 276 277 278 279 279 280 281 281 282 282 283 283 283 283 284 284 284 285 285 286 286 286 286 286 286 286 286 286 286 286 286 286 285 285 284 284 283 283 282 282 283
274 275 276 277 279 279 280 281 282 282 282 283 284 284 284 284 284 284 284 285 286 286 287 287 287 287 287 287 287 287 286 286 287 286 285 285 284 284 284 283 283 283 283
275 275 276 277 279 280 281 282 282 283 284 284 284 283 283 284 284 285 284 285 285 286 287 287 287 287 287 288 287 287 286 286 286 285 285 284 283 283 284 284 283 283 284
275 276 277 278 279 281 281 282 283 283 284 284 284 284 284 285 285 286 285 285 286 286 286 286 287 287 287 288 287 287 287 286 286 285 284 284 283 283 283 283 283 284 285
276 277 278 279 280 281 282 283 283 284 284 285 285 285 285 286 286 287 287 286 287 286 286 286 287 287 286 286 286 286 286 286 285 285 284 283 283 283 284 284 284 284 285
278 278 278 279 281 282 282 283 284 285 285 285 285 285 286 286 287 287 287 287 288 287 287 286 286 286 287 286 286 286 286 285 285 285 284 284 284 283 283 284 284 285 286
278 279 280 280 281 282 283 284 284 285 285 285 285 285 286 287 287 288 288 288 288 288 287 287 287 286 286 286 286 286 285 285 284 284 284 284 284 283 283 284 285 286 287
279 279 280 280 281 283 283 284 285 285 285 285 285 285 286 287 288 288 288 288 288 288 288 288 287 287 287 287 286 285 284 284 284 283 283 284 284 284 284 285 286 287 288
279 280 281 281 282 283 284 285 285 285 285 285 285 285 286 287 288 289 288 288 288 288 288 287 287 287 287 287 286 285 284 283 283 283 283 283 283 284 285 286 287 288 288
279 280 281 282 283 283 284 285 285 285 286 286 286 287 287 288 288 288 288 288 287 287 287 287 287 288 287 287 286 286 285 284 284 284 283 283 283 284 286 287 288 289 289
280 281 281 282 283 284 284 285 286 286 286 286 287 288 288 289 288 288 288 287 286 286 286 286 287 287 287 287 287 286 285 284 284 284 284 284 284 285 286 287 288 289 290
281 281 282 283 284 285 285 285 285 285 286 287 287 288 288 289 288 288 287 286 285 285 285 285 286 286 286 286 286 285 284 284 284 284 284 284 284 284 285 286 287 289 290
281 282 283 283 284 285 285 285 285 285 286 286 287 288 288 289 288 287 285 285 284 284 284 284 285 285 286 285 284 284 284 284 285 285 284 283 283 284 285 285 287 288 290
282 283 283 284 284 285 285 285 286 286 286 286 286 286 287 287 287 286 285 284 284 284 284 284 284 285 285 284 283 283 284 284 284 284 284 283 284 284 285 286 287 289 290
282 283 283 284 285 285 285 286 286 286 286 286 286 286 285 285 285 285 284 284 284 283 283 284 284 284 284 284 283 282 282 282 282 283 283 283 284 285 286 287 288 290 291
282 283 283 284 284 285 285 286 286 286 286 286 286 285 285 284 283 283 283 283 282 282 282 283 283 283 284 284 283 281 280 280 280 282 283 284 285 286 287 287 288 290 291
282 283 283 283 284 284 285 285 286 286 286 286 285 285 284 283 282 282 282 282 282 281 281 281 282 283 284 284 283 282 280 279 279 280 282 283 285 286 286 287 289 291 292
283 284 283 283 284 284 285 285 285 285 286 285 284 284 283 282 281 281 281 281 281 280 280 281 282 282 283 284 283 281 280 279 279 280 281 282 284 285 286 287 289 290 293
284 284 284 284 284 284 284 284 284 284 284 284 283 282 281 280 280 280 280 280 279 280 281 281 281 282 283 283 281 279 279 279 280 280 280 281 283 284 286 287 288 290 293
285 285 285 284 284 284 283 283 283 283 282 281 281 280 280 280 281 280 279 279 279 280 280 280 280 281 282 281 279 278 279 280 281 281 281 282 283 283 285 286 287 290 292
286 285 285 285 284 284 283 283 283 282 281 280 279 279 279 280 280 279 279 279 279 279 279 280 280 280 279 278 277 278 278 278 279 281 282 283 283 284 284 285 286 289 292
Height
5713 5713 5712 5712 5711 5710 5709 5708 5707 5706 5705 5703 5702 5700 5699 5698 5696 5694 5693 5691 5689 5687 5685 5683 5680 5677 5675 5672 5670 5667 5664 5661 5659 5656 5653 5650 5647 5645 5642 5639 5636 5633 5631
5704 5704 5703 5702 5701 5701 5699 5698 5697 5695 5694 5692 5691 5689 5688 5686 5684 5682 5680 5678 5676 5674 5672 5670 5667 5664 5662 5659 5656 5653 5650 5648 5645 5642 5639 5636 5633 5630 5627 5624 5621 5618 5616
5695 5694 5693 5693 5692 5691 5689 5688 5686 5685 5683 5682 5680 5678 5676 5674 5672 5670 5668 5666 5663 5661 5659 5656 5653 5651 5648 5645 5642 5639 5636 5633 5630 5628 5625 5621 5618 5615 5612 5609 5607 5604 5602
5686 5685 5684 5683 5682 5680 5679 5677 5676 5674 5672 5670 5668 5666 5664 5662 5660 5657 5655 5653 5650 5648 5645 5643 5640 5637 5634 5631 5628 5625 5622 5619 5616 5613 5610 5607 5604 5600 5598 5595 5592 5590 5587
5676 5675 5674 5673 5671 5670 5668 5667 5665 5663 5661 5659 5657 5654 5652 5650 5647 5645 5642 5640 5637 5634 5632 5629 5626 5623 5620 5617 5614 5611 5607 5604 5601 5599 5596 5593 5590 5586 5584 5581 5578 5575 5573
5666 5665 5664 5662 5661 5659 5657 5655 5653 5651 5649 5647 5644 5642 5640 5637 5635 5632 5630 5627 5624 5621 5618 5615 5612 5609 5606 5603 5600 5597 5594 5590 5587 5584 5582 5578 5575 5573 5570 5567 5564 5562 5559
5655 5654 5653 5651 5649 5648 5646 5644 5642 5639 5637 5635 5632 5630 5627 5624 5622 5619 5616 5614 5611 5608 5605 5602 5599 5596 5592 5589 5586 5583 5580 5577 5574 5571 5568 5565 5562 5559 5556 5553 5550 5547 5545
5644 5643 5641 5640 5638 5636 5634 5632 5629 5627 5625 5622 5620 5617 5615 5612 5609 5606 5603 5601 5598 5595 5592 5588 5586 5582 5579 5576 5573 5569 5566 5563 5560 5557 5554 5551 5548 5545 5543 5540 5537 5534 5531
5632 5631 5629 5628 5626 5624 5622 5620 5617 5615 5612 5610 5607 5605 5602 5599 5596 5593 5590 5587 5585 5581 5578 5575 5572 5569 5566 5562 5559 5556 5552 5549 5546 5543 5540 5537 5534 5532 5529 5527 5524 5521 5518
5620 5619 5617 5615 5614 5612 5609 5607 5605 5602 5600 5597 5595 5592 5589 5586 5583 5580 5577 5574 5571 5568 5565 5562 5558 5555 5551 5548 5545 5542 5539 5536 5533 5530 5527 5524 5521 5519 5516 5513 5511 5508 5505
5608 5606 5605 5603 5601 5599 5597 5594 5592 5589 5587 5584 5582 5579 5576 5573 5570 5567 5563 5560 5557 5554 5551 5548 5544 5541 5537 5534 5532 5529 5526 5522 5520 5517 5514 5511 5509 5506 5503 5500 5498 5495 5492
5595 5594 5592 5590 5588 5586 5584 5581 5579 5576 5574 5571 5568 5566 5563 5560 5557 5553 5550 5546 5543 5540 5537 5533 5530 5527 5523 5521 5518 5515 5512 5509 5506 5504 5501 5499 5496 5493 5491 5488 5485 5482 5479
5582 5580 5579 5577 5575 5572 5570 5568 5565 5562 5560 5557 5555 5552 5549 5546 5543 5539 5536 5532 5528 5525 5522 5519 5516 5513 5510 5507 5504 5501 5499 5496 5493 5491 5488 5486 5483 5481 5478 5476 5473 5469 5466
5569 5567 5565 5563 5561 5559 5556 5554 5551 5549 5546 5543 5541 5538 5535 5532 5528 5525 5521 5518 5514 5511 5508 5505 5502 5499 5497 5494 5491 5488 5485 5483 5480 5478 5476 5473 5471 5469 5466 5464 5461 5458 5455
5556 5554 5552 5549 5547 5545 5542 5540 5537 5535 5531 5529 5526 5523 5521 5518 5514 5510 5507 5504 5500 5497 5495 5492 5489 5487 5484 5481 5478 5475 5473 5470 5468 5466 5464 5462 5459 5457 5455 5452 5449 5446 5443
5542 5540 5538 5535 5533 5531 5528 5526 5523 5520 5517 5514 5511 5508 5505 5502 5499 5496 5492 5489 5486 5484 5481 5479 5476 5474 5471 5468 5466 5463 5460 5458 5456 5454 5452 5450 5448 5446 5443 5441 5438 5435 5432
5528 5526 5524 5521 5519 5516 5514 5511 5509 5506 5503 5500 5496 5493 5490 5487 5484 5481 5478 5476 5473 5470 5468 5466 5464 5461 5458 5456 5453 5451 5449 5447 5445 5443 5441 5439 5437 5435 5432 5430 5427 5424 5421
5514 5511 5509 5507 5504 5502 5499 5496 5494 5491 5489 5486 5482 5479 5476 5473 5470 5467 5464 5462 5460 5457 5455 5453 5451 5448 5446 5444 5442 5440 5438 5436 5434 5432 5430 5428 5426 5424 5422 5419 5417 5414 5411
5499 5497 5494 5492 5489 5487 5484 5481 5478 5476 5473 5471 5468 5465 5461 5459 5456 5453 5450 5448 5447 5445 5442 5440 5438 5436 5434 5432 5431 5429 5427 5425 5424 5422 5420 5418 5416 5414 5411 5409 5406 5403 5401
5484 5481 5479 5476 5474 5471 5468 5466 5463 5460 5458 5456 5453 5450 5447 5445 5443 5440 5438 5435 5433 5432 5430 5428 5426 5424 5423 5421 5419 5418 5416 5415 5413 5412 5410 5408 5406 5404 5401 5399 5397 5394 5391
5468 5466 5463 5461 5458 5456 5453 5450 5448 5445 5443 5441 5438 5436 5433 5431 5429 5427 5425 5423 5421 5420 5418 5416 5415 5413 5412 5410 5408 5407 5406 5404 5403 5401 5400 5398 5396 5394 5392 5390 5387 5385 5382
5453 5450 5448 5445 5443 5440 5438 5435 5433 5431 5428 5426 5424 5422 5419 5418 5416 5415 5413 5411 5409 5408 5406 5405 5404 5402 5401 5399 5398 5396 5395 5394 5393 5392 5390 5389 5387 5385 5383 5381 5379 5376 5374
5438 5435 5433 5430 5427 5425 5423 5421 5418 5416 5414 5412 5410 5409 5407 5405 5404 5402 5401 5399 5398 5397 5395 5394 5393 5392 5391 5389 5388 5387 5386 5385 5384 5382 5381 5380 5378 5377 5375 5373 5371 5368 5366
5423 5420 5418 5415 5413 5411 5409 5407 5405 5402 5401 5399 5397 5396 5394 5393 5392 5391 5389 5388 5387 5386 5385 5384 5383 5382 5381 5380 5378 5377 5376 5375 5374 5373 5372 5371 5370 5368 5366 5365 5363 5360 5358
5408 5406 5403 5401 5399 5397 5395 5393 5391 5390 5388 5386 5385 5384 5383 5382 5381 5380 5379 5378 5377 5376 5375 5374 5373 5372 5371 5370 5370 5369 5368 5367 5366 5365 5364 5363 5361 5360 5358 5357 5355 5353 5351
5395 5392 5390 5388 5386 5384 5382 5381 5379 5378 5376 5375 5374 5373 5372 5372 5371 5370 5369 5368 5367 5367 5366 5365 5364 5363 5363 5362 5361 5360 5359 5359 5358 5357 5356 5355 5353 5352 5351 5349 5348 5346 5344